K9JWM Weather Reports


Display with metric or nautical units.
time (UTC)temp
F
wind
direction
speed
MPH
gust
MPH
rain 1hr
in
rain 24hr
in
rain mn
in
humidity
%
barometer
mb
20260901145012 70 250 5.0 7.0 0.00 0.00 0.00 72 1012.8
20260901144422 70 239 3.0 3.0 0.00 0.00 0.00 76 1012.8
20260901144005 69 225 3.0 5.0 0.00 0.00 0.00 75 1012.8
20260901143005 69 225 4.0 6.0 0.00 0.00 0.00 79 1012.8
20260901142922 69 226 3.0 5.0 0.00 0.00 0.00 78 1012.8
20260901142005 68 236 3.0 3.0 0.00 0.00 0.00 81 1012.8
20260901141422 67 227 3.0 3.0 0.00 0.00 0.00 83 1012.8
20260901141005 67 232 3.0 3.0 0.00 0.00 0.00 83 1012.8
20260901140005 66 225 3.0 5.0 0.00 0.00 0.00 84 1012.7
20260901135922 66 224 3.0 3.0 0.00 0.00 0.00 85 1012.8
20260901135016 65 252 3.0 3.0 0.00 0.00 0.00 86 1012.9
20260901134420 65 273 1.0 2.0 0.00 0.00 0.00 88 1013.0
20260901134005 65 267 2.0 3.0 0.00 0.00 0.00 88 1012.9
20260901133005 63 238 2.0 3.0 0.00 0.00 0.00 89 1013.0
20260901132921 63 236 2.0 3.0 0.00 0.00 0.00 90 1013.0
20260901132005 63 240 2.0 3.0 0.00 0.00 0.00 91 1012.9
20260901131425 62 243 2.0 3.0 0.00 0.00 0.00 91 1012.9
20260901131005 62 243 2.0 3.0 0.00 0.00 0.00 91 1012.8
20260901130004 61 246 3.0 3.0 0.00 0.00 0.00 92 1012.7
20260901125926 61 247 2.0 3.0 0.00 0.00 0.00 93 1012.7
20260901125005 61 247 2.0 3.0 0.00 0.00 0.00 93 1012.7
20260901124420 61 265 1.0 1.0 0.00 0.00 0.00 94 1012.5
20260901123005 59 265 0.0 2.0 0.00 0.00 0.00 94 1012.5
20260901122922 59 265 0.0 2.0 0.00 0.00 0.00 94 1012.4
20260901122005 59 272 0.0 2.0 0.00 0.00 0.00 94 1012.5
20260901121422 59 272 0.0 0.0 0.00 0.00 0.00 94 1012.4
20260901121005 58 272 0.0 2.0 0.00 0.00 0.00 94 1012.5
20260901120021 57 272 0.0 0.0 0.00 0.00 0.00 94 1012.5
20260901120004 57 272 0.0 2.0 0.00 0.00 0.00 94 1012.5
20260901115006 57 272 0.0 0.0 0.00 0.00 0.00 94 1012.3
20260901114005 56 272 0.0 0.0 0.00 0.00 0.00 94 1012.1
20260901113005 56 272 0.0 0.0 0.00 0.00 0.00 94 1011.9
20260901112926 56 272 0.0 0.0 0.00 0.00 0.00 94 1011.9
20260901112006 56 272 0.0 0.0 0.00 0.00 0.00 93 1011.7
20260901111421 57 272 0.0 0.0 0.00 0.00 0.00 94 1011.6
20260901111012 57 272 0.0 0.0 0.00 0.00 0.00 94 1011.6
20260901105922 57 272 0.0 0.0 0.00 0.00 0.00 94 1011.6
20260901105012 57 272 0.0 0.0 0.00 0.00 0.00 93 1011.6
20260901104421 57 272 0.0 0.0 0.00 0.00 0.00 93 1011.6
20260901104012 57 272 0.0 0.0 0.00 0.00 0.00 93 1011.7
20260901103004 58 272 0.0 0.0 0.00 0.00 0.00 94 1011.6
20260901102921 58 272 0.0 0.0 0.00 0.00 0.00 94 1011.6
20260901102005 58 272 0.0 0.0 0.00 0.00 0.00 94 1011.6
20260901101422 58 272 0.0 0.0 0.00 0.00 0.00 94 1011.6
20260901101005 58 272 0.0 0.0 0.00 0.00 0.00 94 1011.6
20260901100022 58 272 0.0 0.0 0.00 0.00 0.00 94 1011.5
20260901100004 58 272 0.0 0.0 0.00 0.00 0.00 94 1011.5
20260901095005 58 272 0.0 0.0 0.00 0.00 0.00 94 1011.5
20260901094006 59 272 0.0 0.0 0.00 0.00 0.00 94 1011.5
20260901092940 59 272 0.0 0.0 0.00 0.00 0.00 93 1011.3
20260901092012 59 272 0.0 0.0 0.00 0.00 0.00 94 1011.4
20260901091431 60 272 0.0 0.0 0.00 0.00 0.00 94 1011.4
20260901091012 60 272 0.0 0.0 0.00 0.00 0.00 94 1011.4
20260901090004 60 272 0.0 0.0 0.00 0.00 0.00 94 1011.4
20260901085920 60 272 0.0 0.0 0.00 0.00 0.00 94 1011.4
20260901085005 60 272 0.0 0.0 0.00 0.00 0.00 94 1011.4
20260901084420 60 272 0.0 0.0 0.00 0.00 0.00 94 1011.4
20260901084005 60 272 0.0 0.0 0.00 0.00 0.00 94 1011.5
20260901083004 61 272 0.0 0.0 0.00 0.00 0.00 94 1011.5
20260901082921 61 272 0.0 0.0 0.00 0.00 0.00 94 1011.5
20260901082005 61 272 0.0 0.0 0.00 0.00 0.00 94 1011.5
20260901081425 61 272 0.0 0.0 0.00 0.00 0.00 94 1011.4
20260901080005 60 272 0.0 0.0 0.00 0.00 0.00 94 1011.4
20260901075921 60 272 0.0 0.0 0.00 0.00 0.00 94 1011.4
20260901075005 60 272 0.0 0.0 0.00 0.00 0.00 93 1011.5
20260901074422 60 272 0.0 0.0 0.00 0.00 0.00 93 1011.4
20260901074004 61 272 0.0 0.0 0.00 0.00 0.00 92 1011.5
20260901073005 62 272 0.0 0.0 0.00 0.00 0.00 94 1011.7
20260901072922 62 272 0.0 0.0 0.00 0.00 0.00 94 1011.7
20260901072012 62 272 0.0 0.0 0.00 0.00 0.00 94 1011.6
20260901071435 62 272 0.0 0.0 0.00 0.00 0.00 94 1011.6
20260901071012 62 272 0.0 1.0 0.00 0.00 0.00 94 1011.6
20260901070005 62 272 0.0 0.0 0.00 0.00 0.00 94 1011.6
20260901065921 62 272 0.0 0.0 0.00 0.00 0.00 94 1011.6
20260901065005 62 272 0.0 0.0 0.00 0.00 0.00 93 1011.6
20260901064425 62 272 0.0 0.0 0.00 0.00 0.00 93 1011.7
20260901063005 62 272 1.0 2.0 0.00 0.00 0.00 93 1011.6
20260901062923 62 272 1.0 2.0 0.00 0.00 0.00 92 1011.6
20260901061421 63 272 0.0 0.0 0.00 0.00 0.00 94 1011.4
20260901061007 63 272 0.0 2.0 0.00 0.00 0.00 94 1011.5
20260901060005 63 272 0.0 0.0 0.00 0.00 0.00 93 1011.4
20260901055921 63 272 0.0 0.0 0.00 0.00 0.00 93 1011.4
20260901055004 63 272 0.0 0.0 0.00 0.00 0.00 93 1011.4
20260901054425 63 272 0.0 0.0 0.00 0.00 0.00 93 1011.4
20260901054011 63 272 0.0 1.0 0.00 0.00 0.00 93 1011.4
20260901052922 63 272 0.0 0.0 0.00 0.00 0.00 92 1011.4
20260901052005 63 272 0.0 0.0 0.00 0.00 0.00 93 1011.5
20260901051521 64 272 0.0 0.0 0.00 0.00 0.00 93 1011.5
20260901051006 64 272 0.0 0.0 0.00 0.00 0.00 93 1011.5
20260901050020 64 272 0.0 2.0 0.00 0.00 0.00 93 1011.4
20260901050005 64 272 0.0 2.0 0.00 0.00 0.00 93 1011.4
20260901045004 63 272 0.0 0.0 0.00 0.00 0.00 91 1011.2
20260901043004 64 272 0.0 0.0 0.00 0.00 0.00 92 1011.2
20260901042926 64 272 0.0 0.0 0.00 0.00 0.00 91 1011.2
20260901042005 64 272 0.0 2.0 0.00 0.00 0.00 91 1011.2
20260901041421 64 272 0.0 0.0 0.00 0.00 0.00 91 1011.3
20260901041005 64 272 0.0 1.0 0.00 0.00 0.00 90 1011.2
20260901035920 65 272 0.0 0.0 0.00 0.00 0.00 89 1011.2
20260901035005 65 272 0.0 1.0 0.00 0.00 0.00 90 1011.1
20260901034421 65 272 0.0 0.0 0.00 0.00 0.00 90 1011.1
20260901034004 65 272 0.0 1.0 0.00 0.00 0.00 90 1011.1
20260901033005 65 272 0.0 0.0 0.00 0.00 0.00 88 1011.0
20260901033003 65 272 0.0 0.0 0.00 0.00 0.00 88 1010.9
20260901032005 65 272 0.0 0.0 0.00 0.00 0.00 87 1010.8
20260901031435 65 272 0.0 0.0 0.00 0.00 0.00 87 1010.8
20260901031005 65 272 0.0 0.0 0.00 0.00 0.00 87 1010.8
20260901030004 64 272 0.0 0.0 0.00 0.00 0.00 86 1010.9
20260901025920 64 272 0.0 0.0 0.00 0.00 0.00 86 1010.9
20260901025007 65 272 0.0 0.0 0.00 0.00 0.00 85 1010.9
20260901024421 65 272 0.0 0.0 0.00 0.00 0.00 85 1010.9
20260901024004 65 272 0.0 0.0 0.00 0.00 0.00 85 1010.9
20260901023020 66 272 0.0 0.0 0.00 0.00 0.00 83 1010.9
20260901023005 66 272 0.0 0.0 0.00 0.00 0.00 83 1011.0
20260901022004 66 272 0.0 0.0 0.00 0.00 0.00 82 1010.9
20260901021520 66 272 0.0 0.0 0.00 0.00 0.00 81 1010.8
20260901020004 67 272 0.0 0.0 0.00 0.00 0.00 80 1010.7
20260901015921 67 272 0.0 0.0 0.00 0.00 0.00 80 1010.7
20260901015007 67 272 0.0 0.0 0.00 0.00 0.00 80 1010.7
20260901014420 68 272 0.0 0.0 0.00 0.00 0.00 79 1010.7
20260901014005 68 272 0.0 2.0 0.00 0.00 0.00 79 1010.6
20260901013005 69 272 0.0 2.0 0.00 0.00 0.00 79 1010.4
20260901012922 69 272 0.0 0.0 0.00 0.00 0.00 78 1010.4
20260901012011 70 272 0.0 1.0 0.00 0.00 0.00 76 1010.3
20260901011421 70 272 0.0 0.0 0.00 0.00 0.00 75 1010.2
20260901011011 71 272 0.0 2.0 0.00 0.00 0.00 74 1010.2
20260901010005 71 322 0.0 0.0 0.00 0.00 0.00 70 1010.1
20260901005926 71 322 0.0 0.0 0.00 0.00 0.00 70 1010.1
20260901005007 72 322 0.0 0.0 0.00 0.00 0.00 67 1010.1
20260901004422 73 322 0.0 0.0 0.00 0.00 0.00 66 1010.0
20260901004005 73 322 0.0 0.0 0.00 0.00 0.00 65 1010.0
20260901003005 74 322 0.0 0.0 0.00 0.00 0.00 61 1010.0
20260901002939 75 322 0.0 0.0 0.00 0.00 0.00 61 1009.9
20260901000004 78 322 0.0 0.0 0.00 0.00 0.00 54 1009.8
20260831235921 78 322 0.0 0.0 0.00 0.00 0.00 53 1009.8
20260831235004 79 322 0.0 2.0 0.00 0.00 0.00 52 1009.8
20260831234421 79 322 0.0 2.0 0.00 0.00 0.00 51 1009.8
20260831234005 80 322 0.0 2.0 0.00 0.00 0.00 52 1009.8
20260831232921 81 322 1.0 2.0 0.00 0.00 0.00 47 1009.9
20260831232007 81 289 0.0 3.0 0.00 0.00 0.00 49 1009.9
20260831231421 83 285 0.0 0.0 0.00 0.00 0.00 46 1009.8
20260831231006 83 260 2.0 5.0 0.00 0.00 0.00 47 1009.7
20260831230004 82 234 1.0 5.0 0.00 0.00 0.00 56 1009.6
20260831225921 82 260 1.0 3.0 0.00 0.00 0.00 56 1009.5
20260831225005 84 358 1.0 5.0 0.00 0.00 0.00 55 1009.5
20260831224421 83 288 1.0 5.0 0.00 0.00 0.00 53 1009.5
20260831224005 83 261 1.0 8.0 0.00 0.00 0.00 55 1009.5
20260831223005 83 256 3.0 6.0 0.00 0.00 0.00 57 1009.5
20260831222926 83 250 2.0 5.0 0.00 0.00 0.00 56 1009.5
20260831222008 83 259 5.0 9.0 0.00 0.00 0.00 59 1009.5
20260831221420 83 258 5.0 6.0 0.00 0.00 0.00 59 1009.4
20260831221012 83 246 2.0 10.0 0.00 0.00 0.00 58 1009.4
20260831220005 83 289 4.0 8.0 0.00 0.00 0.00 60 1009.4
20260831215920 83 314 5.0 7.0 0.00 0.00 0.00 60 1009.4
20260831215005 84 258 5.0 8.0 0.00 0.00 0.00 60 1009.4
20260831214421 83 257 3.0 6.0 0.00 0.00 0.00 59 1009.3
20260831213005 83 238 2.0 7.0 0.00 0.00 0.00 64 1009.2
20260831212920 82 234 2.0 5.0 0.00 0.00 0.00 64 1009.2
20260831212004 82 291 2.0 8.0 0.00 0.00 0.00 63 1009.1
20260831211420 81 270 2.0 5.0 0.00 0.00 0.00 71 1009.1
20260831211004 81 248 6.0 12.0 0.00 0.00 0.00 71 1009.1
20260831205921 81 253 3.0 6.0 0.00 0.00 0.00 70 1009.0
20260831205015 81 254 5.0 12.0 0.00 0.00 0.00 72 1009.1
20260831204005 80 228 6.0 10.0 0.00 0.00 0.00 71 1009.0
20260831203005 80 235 4.0 7.0 0.00 0.00 0.00 74 1008.9
20260831202920 80 236 5.0 5.0 0.00 0.00 0.00 74 1008.9
20260831202004 78 266 3.0 8.0 0.00 0.00 0.00 77 1009.1
20260831201420 78 226 6.0 7.0 0.00 0.00 0.00 77 1009.0
20260831201004 78 246 3.0 9.0 0.00 0.00 0.00 78 1008.9
20260831200004 77 247 4.0 7.0 0.00 0.00 0.00 79 1009.0
20260831195920 77 256 3.0 3.0 0.00 0.00 0.00 79 1009.0
20260831195005 78 239 9.0 13.0 0.00 0.00 0.00 79 1009.0
20260831194005 77 236 4.0 9.0 0.00 0.00 0.00 81 1008.9
20260831193005 76 237 5.0 8.0 0.00 0.00 0.00 82 1009.0
20260831192920 76 237 6.0 7.0 0.00 0.00 0.00 82 1009.0
20260831192012 76 240 5.0 9.0 0.00 0.00 0.00 83 1008.9
20260831190011 76 233 7.0 12.0 0.00 0.00 0.00 83 1009.2
20260831185921 76 235 7.0 8.0 0.00 0.00 0.00 83 1009.2
20260831185007 76 244 9.0 13.0 0.00 0.00 0.00 83 1009.2
20260831184005 76 240 10.0 12.0 0.00 0.00 0.00 84 1009.2
20260831183004 75 227 6.0 10.0 0.00 0.00 0.00 85 1009.1
20260831182921 75 237 7.0 6.0 0.00 0.00 0.00 85 1009.2
20260831182004 75 232 6.0 8.0 0.00 0.00 0.00 84 1008.9
20260831181005 74 243 3.0 5.0 0.00 0.00 0.00 87 1009.1
20260831180012 74 234 3.0 8.0 0.00 0.00 0.00 87 1009.1
20260831175930 74 235 2.0 5.0 0.00 0.00 0.00 87 1009.2
20260831175007 74 241 5.0 6.0 0.00 0.00 0.00 87 1009.2
20260831174420 74 246 3.0 6.0 0.00 0.00 0.00 87 1009.2
20260831173007 73 249 3.0 8.0 0.00 0.00 0.00 89 1009.4
20260831172920 73 252 3.0 3.0 0.00 0.00 0.00 88 1009.4
20260831172005 73 224 5.0 8.0 0.00 0.00 0.00 89 1009.4
20260831170005 73 234 5.0 7.0 0.00 0.00 0.00 89 1009.2
20260831165922 73 234 5.0 7.0 0.00 0.00 0.00 89 1009.2
20260831164421 73 230 5.0 5.0 0.00 0.00 0.00 89 1009.3
20260831164004 73 232 5.0 8.0 0.00 0.00 0.00 89 1009.2
20260831163006 73 223 5.0 6.0 0.00 0.00 0.00 89 1009.2
20260831162921 73 230 5.0 6.0 0.00 0.00 0.00 89 1009.1
20260831162004 73 227 4.0 5.0 0.00 0.00 0.00 89 1009.1
20260831161421 73 239 5.0 5.0 0.00 0.00 0.00 89 1008.8
20260831161004 73 250 3.0 7.0 0.00 0.00 0.00 89 1008.8
20260831155921 72 239 2.0 2.0 0.00 0.00 0.00 90 1008.6
20260831155004 72 248 3.0 6.0 0.00 0.00 0.00 90 1008.9
20260831154420 72 243 3.0 3.0 0.00 0.00 0.00 89 1008.7
20260831153004 72 247 3.0 6.0 0.00 0.00 0.00 89 1008.5
20260831152921 72 246 3.0 3.0 0.00 0.00 0.00 89 1008.4
20260831152004 72 242 5.0 7.0 0.00 0.00 0.00 89 1008.4
20260831150004 72 206 3.0 7.0 0.00 0.00 0.00 88 1008.2
20260831145920 72 223 5.0 7.0 0.00 0.00 0.00 88 1008.2